Other Public Products
Issued by NWS Charleston, SC

Current Version | Previous Version | Text Only | Print | Product List | Glossary Off
Versions: 1 2 3 4 5 6 7 8 9 10 11 12 13 14 15 16 17 18 19 20 21 22 23 24 25 26 27 28 29 30 31 32 33 34 35 36 37 38 39 40 41 42 43 44 45 46 47 48 49 50

000
FPUS82 KCHS 240227
OPUCHS

TEST...KCHS/KSAV Gateway Observations...TEST
National Weather Service Charleston SC
900 PM EST FRI FEB 23 2018

NOTE: "fair" indicates few or no clouds below 12,000 feet with no
significant weather and/or obstructions to visibility.

SCZ050-WAZ558-NCZ071-TXZ119-213-PAZ071-DCZ001-FLZ074-172-MI076-
NYZ176-178-MAZ016-IL014-TNZ027-NJZ106-GAZ044-MD014-240300-

...Gateway Observations for Charleston International...

CITY           SKY/WX    TMP DP  RH WIND       PRES   REMARKS
Chas Airport   MOCLDY    67  65  93 S7        30.33F
Seattle        LGT SNOW  33  31  92 S12       30.19F FOG     WCI  24
Charlotte      FAIR      66  55  67 SW5       30.32R
Dallas DFW     DRIZZLE   49  47  93 NW7       30.04R FOG
Dallas Love    DRZL/FOG  49  48  97 NW7       30.04S VSB 3/4
Philladelphia  FOG       43  43 100 SW6       30.28F VSB 3/4
Wash National  DRIZZLE   47  46  97 S6        30.31F FOG
Baltimore      FOG       42  42 100 CALM      30.29F VSB 3/4
Miami          FAIR      75  66  73 E16       30.26S
Detroit        CLOUDY    46  40  79 W13       30.19S
Newark         CLOUDY    40  38  93 W6        30.26F FOG     WCI  36
Laguardia      CLOUDY    41  39  93 S5        30.26F
J F K          CLOUDY    40  39  97 W6        30.28S FOG     WCI  36
Boston Logan   LGT RAIN  37  35  92 SW8       30.22F WCI  31
Ft. Lauderdale MOCLDY    75  67  76 E16       30.26S
Chicago O`Hare CLOUDY    37  32  82 W5        30.24S WCI  33
Chicago Midway CLOUDY    39  33  79 W7        30.25S WCI  34
Houston Bush   MOCLDY    71  69  93 SE13      30.05S
Houston Hobby  CLOUDY    72  71  97 SE6       30.05S
Nashville      CLOUDY    70  55  59 S5        30.18F
Atlanta        MOCLDY    70  59  68 SE6       30.28S

$$

GAZ044-118-TXZ119-213-NCZ071-DCZ001-MDZ014-506-PAZ021-071-NJZ106-
NYZ176-178-MAZ106-OHZ011-021-055-MIZ076-KYZ091-ILZ014-INZ047-
MNZ060-ONZ431-240300-

...Gateway Observations for Savannah International...

CITY           SKY/WX    TMP DP  RH WIND       PRES   REMARKS
Savannah Arpt  FAIR      67  64  90 SE5       30.33S
Atlanta        MOCLDY    70  59  68 SE6       30.28S
Charlotte      FAIR      66  55  67 SW5       30.32R
Dallas DFW     DRIZZLE   49  47  93 NW7       30.04R FOG
Houston Bush   MOCLDY    71  69  93 SE13      30.05S
Wash National  DRIZZLE   47  46  97 S6        30.31F FOG
Wash Dulles    FOG       45  45 100 S3        30.28F VSB 3/4
Baltimore      FOG       42  42 100 CALM      30.29F VSB 3/4
Philadelphia   FOG       43  43 100 SW6       30.28F VSB 3/4
Newark         CLOUDY    40  38  93 W6        30.26F FOG     WCI  36
Laguardia      CLOUDY    41  39  93 S5        30.26F
J F K          CLOUDY    40  39  97 W6        30.28S FOG     WCI  36
Boston         LGT RAIN  37  35  92 SW8       30.22F WCI  31
Pittsburg      CLOUDY    61  57  87 W7        30.18R
Akron          CLOUDY    57  50  77 NW10      30.18R
Cleveland      CLOUDY    51  47  86 NW12      30.23R
Cincinnati     CLOUDY    54  53  97 W7        30.20F
Columbus       FAIR      55  55 100 W6        30.20F
Detroit        CLOUDY    46  40  79 W13       30.19S
Chicago O`Hare CLOUDY    37  32  82 W5        30.24S WCI  33
Minneapolis    FAIR      23  19  85 SW6       30.29R WCI  16
Indianapolis   CLOUDY    47  44  90 NW8       30.25R
Toronto Canada CLOUDY    43  41  93 W15       30.09R

$$




USA.gov is the U.S. government's official web portal to all federal, state and local government web resources and services.